tDAR Logo tDAR digital antiquity

California Department of Forestry 1948 Aerial Photos: Flightline 22 (Humboldt and Del Norte Counties)

Creator(s): California Department of Forestry

Year: 1948

» Downloads & Basic Metadata

Summary

A series of aerial photos taken from 1947 to 1948 by the California Department of Forestry in Humboldt and Del Norte Counties.


Cite this Record

California Department of Forestry 1948 Aerial Photos: Flightline 22 (Humboldt and Del Norte Counties). California Department of Forestry. 1948. Humboldt State University, Cultural Resources Facility ( tDAR id: 370122) ; doi:10.6067/XCV85B01H4





Keywords


Temporal Coverage

Calendar Date: 1947 to 1948


Spatial Coverage

min long: -124.662; min lat: 39.935 ; max long: -123.311; max lat: 42.115 ;

File Information

  Name Size Creation Date Date Uploaded Access
a48-hum-cdf2-22-007.jpg 4.53mb Oct 31, 2011 9:42:08 AM Public
a48-hum-cdf2-22-008.jpg 4.82mb Oct 31, 2011 9:42:18 AM Public
a48-hum-cdf2-22-009.jpg 5.07mb Oct 31, 2011 9:43:00 AM Public
a48-hum-cdf2-22-010.jpg 5.03mb Oct 31, 2011 9:43:22 AM Public
a48-hum-cdf2-22-011.jpg 4.79mb Oct 31, 2011 9:43:28 AM Public
a48-hum-cdf2-22-013.jpg 4.53mb Oct 31, 2011 9:43:41 AM Public
a48-hum-cdf2-22-014.jpg 4.36mb Oct 31, 2011 9:44:43 AM Public
a48-hum-cdf2-22-015.jpg 4.32mb Oct 31, 2011 9:44:52 AM Public
a48-hum-cdf2-22-016.jpg 4.51mb Oct 31, 2011 9:45:01 AM Public
a48-hum-cdf2-22-017.jpg 4.59mb Oct 31, 2011 9:45:15 AM Public
a48-hum-cdf2-22-018.jpg 4.61mb Oct 31, 2011 9:45:20 AM Public
a48-hum-cdf2-22-019.jpg 4.52mb Oct 31, 2011 9:45:31 AM Public
a48-hum-cdf2-22-020.jpg 4.83mb Oct 31, 2011 9:45:51 AM Public
a48-hum-cdf2-22-021.jpg 4.76mb Oct 31, 2011 9:46:04 AM Public
a48-hum-cdf2-22-022.jpg 4.77mb Oct 31, 2011 9:46:16 AM Public
a48-hum-cdf2-22-023.jpg 5.00mb Oct 31, 2011 9:46:25 AM Public
a48-hum-cdf2-22-024.jpg 4.86mb Oct 31, 2011 9:47:11 AM Public
a48-hum-cdf2-22-025.jpg 4.61mb Oct 31, 2011 9:47:20 AM Public
a48-hum-cdf2-22-026.jpg 4.29mb Oct 31, 2011 9:47:26 AM Public
a48-hum-cdf2-22-027.jpg 4.70mb Oct 31, 2011 9:47:39 AM Public
a48-hum-cdf2-22-028.jpg 4.75mb Oct 31, 2011 9:47:46 AM Public
a48-hum-cdf2-22-029.jpg 4.74mb Oct 31, 2011 9:49:46 AM Public
a48-hum-cdf2-22-030.jpg 4.15mb Oct 31, 2011 9:50:16 AM Public
a48-hum-cdf2-22-031.jpg 4.06mb Oct 31, 2011 9:52:35 AM Public
a48-hum-cdf2-22-032.jpg 3.81mb Oct 31, 2011 9:52:42 AM Public
a48-hum-cdf2-22-033.jpg 3.77mb Oct 31, 2011 9:52:47 AM Public
a48-hum-cdf2-22-034.jpg 3.90mb Oct 31, 2011 9:52:52 AM Public
a48-hum-cdf2-22-036.jpg 4.17mb Oct 31, 2011 9:52:56 AM Public
a48-hum-cdf2-22-037.jpg 4.17mb Oct 31, 2011 9:53:01 AM Public
a48-hum-cdf2-22-038.jpg 4.03mb Oct 31, 2011 9:53:10 AM Public
a48-hum-cdf2-22-039.jpg 4.48mb Oct 31, 2011 9:53:47 AM Public
a48-hum-cdf2-22-040.jpg 4.06mb Oct 31, 2011 9:53:54 AM Public
a48-hum-cdf2-22-041.jpg 3.80mb Oct 31, 2011 9:53:59 AM Public
a48-hum-cdf2-22-042.jpg 4.16mb Oct 31, 2011 9:54:04 AM Public
a48-hum-cdf2-22-043.jpg 4.40mb Oct 31, 2011 9:56:36 AM Public
a48-hum-cdf2-22-044.jpg 4.08mb Oct 31, 2011 9:56:51 AM Public
a48-hum-cdf2-22-045.jpg 4.04mb Oct 31, 2011 9:56:57 AM Public
a48-hum-cdf2-22-046.jpg 4.03mb Oct 31, 2011 9:57:04 AM Public
a48-hum-cdf2-22-047.jpg 4.25mb Oct 31, 2011 9:57:15 AM Public
a48-hum-cdf2-22-048.jpg 4.15mb Oct 31, 2011 9:57:23 AM Public
a48-hum-cdf2-22-049.jpg 3.67mb Oct 31, 2011 9:57:32 AM Public
a48-hum-cdf2-22-050.jpg 3.37mb Oct 31, 2011 9:57:37 AM Public
a48-hum-cdf2-22-051.jpg 3.24mb Oct 31, 2011 9:57:42 AM Public
a48-hum-cdf2-22-052.jpg 3.61mb Oct 31, 2011 9:57:47 AM Public
a48-hum-cdf2-22-053.jpg 4.36mb Oct 31, 2011 9:57:58 AM Public
a48-hum-cdf2-22-054.jpg 5.05mb Oct 31, 2011 9:58:04 AM Public
a48-hum-cdf2-22-055.jpg 5.04mb Oct 31, 2011 9:58:12 AM Public
a48-hum-cdf2-22-056.jpg 4.98mb Oct 31, 2011 9:58:33 AM Public
a48-hum-cdf2-22-065.jpg 4.08mb Oct 31, 2011 9:58:39 AM Public
a48-hum-cdf2-22-066.jpg 4.17mb Oct 31, 2011 9:58:46 AM Public
a48-hum-cdf2-22-067.jpg 4.39mb Oct 31, 2011 9:58:53 AM Public
a48-hum-cdf2-22-068.jpg 4.15mb Oct 31, 2011 9:59:28 AM Public
a48-hum-cdf2-22-069.jpg 4.05mb Oct 31, 2011 10:00:03 AM Public
a48-hum-cdf2-22-070.jpg 3.72mb Oct 31, 2011 10:00:35 AM Public
a48-hum-cdf2-22-071.jpg 3.69mb Oct 31, 2011 10:02:41 AM Public
a48-hum-cdf2-22-072.jpg 3.77mb Oct 31, 2011 10:02:47 AM Public
a48-hum-cdf2-22-073.jpg 3.55mb Oct 31, 2011 10:02:52 AM Public
a48-hum-cdf2-22-074.jpg 3.30mb Oct 31, 2011 10:03:06 AM Public
a48-hum-cdf2-22-075.jpg 3.16mb Oct 31, 2011 10:04:23 AM Public
a48-hum-cdf2-22-076.jpg 3.46mb Oct 31, 2011 10:05:04 AM Public
a48-hum-cdf2-22-077.jpg 3.86mb Oct 31, 2011 10:05:21 AM Public
a48-hum-cdf2-22-078.jpg 4.10mb Oct 31, 2011 10:05:27 AM Public
a48-hum-cdf2-22-079.jpg 4.04mb Oct 31, 2011 10:05:33 AM Public
a48-hum-cdf2-22-080.jpg 4.13mb Oct 31, 2011 10:05:38 AM Public
a48-hum-cdf2-22-081.jpg 4.63mb Oct 31, 2011 10:05:55 AM Public
a48-hum-cdf2-22-082.jpg 4.88mb Oct 31, 2011 10:06:00 AM Public
a48-hum-cdf2-22-083.jpg 4.21mb Oct 31, 2011 10:06:05 AM Public
a48-hum-cdf2-22-084.jpg 4.40mb Oct 31, 2011 10:06:11 AM Public
a48-hum-cdf2-22-085.jpg 4.08mb Oct 31, 2011 10:06:43 AM Public
a48-hum-cdf2-22-086.jpg 3.98mb Oct 31, 2011 10:07:43 AM Public
a48-hum-cdf2-22-087.jpg 3.97mb Oct 31, 2011 10:07:53 AM Public
a48-hum-cdf2-22-088.jpg 4.21mb Oct 31, 2011 10:08:07 AM Public
a48-hum-cdf2-22-089.jpg 4.37mb Oct 31, 2011 10:08:19 AM Public
a48-hum-cdf2-22-090.jpg 3.96mb Oct 31, 2011 10:08:27 AM Public
a48-hum-cdf2-22-0122.jpg 4.43mb Oct 31, 2011 10:08:49 AM Public
flightline-22dn.jpg 597.39kb Nov 3, 2011 12:26:13 PM Public
Arizona State University The Andrew W. Mellon Foundation National Science Foundation National Endowment for the Humanities Society for American Archaeology Archaeological Institute of America